Weather Roundup
Issued by NWS Springfield, MO

Home | Current Version | Previous Version | Text Only | Print | Product List | Glossary On
Versions: 1 2 3 4 5 6 7 8 9 10 11 12 13 14 15 16 17 18 19 20 21 22 23 24 25 26 27 28 29 30 31 32 33 34 35 36 37 38 39 40 41 42 43 44 45 46 47 48 49 50
000
NZUS99 KSGF 212007
HRRSGF

HOURLY WEATHER
NATIONAL WEATHER SERVICE SPRINGFIELD MO
300 PM CDT THU SEP 21 2017

......SGF CWA......

CITY           SKY/WX    TMP DP  RH WIND       PRES   REMARKS
SPRINGFIELD    SUNNY     92  69  47 S13G23    29.96F HX  97
JOPLIN         MOSUNNY   90  75  61 S14G22    29.93F HX 100
WEST PLAINS    MOSUNNY   91  64  40 SE12      30.02F HX  92
ROLLA          MOSUNNY   93  68  43 S13G21    29.99F HX  97
OSAGE BEACH    MOSUNNY   91  71  51 S10       29.96F HX  97
BRANSON        MOSUNNY   91  66  43 S14G20    30.00F HX  94

......SURROUNDING SGF CWA......

CITY           SKY/WX    TMP DP  RH WIND       PRES   REMARKS
CHANUTE        MOSUNNY   90  75  61 S21G30    29.88F HX 100
COFFEYVILLE    SUNNY     92  74  55 S14G22    29.87F HX 101
EMPORIA        SUNNY     91  73  55 S24G30    29.82F HX  99
GROVE OK       SUNNY     90  73  58 S13G18    29.95F HX  98
ROGERS AR      MOSUNNY   88  70  55 S14       29.99F HX  93
SILOAM SPRINGS PTSUNNY   88  71  57 S12G21    29.98F HX  94
HARRISON AR    MOSUNNY   89  67  47 SE15G21   30.00F HX  92
NEAR YELLVILLE MOSUNNY   90  69  50 VRB6      29.98F HX  94

......KANSAS AND MISSOURI......

CITY           SKY/WX    TMP DP  RH WIND       PRES   REMARKS
KANSAS CTY INT MOSUNNY   89  73  59 S17G31    29.86F HX  97
DOWNTOWN KC    MOSUNNY   93  74  53 SE13G22   29.85F HX 103
COLUMBIA       MOSUNNY   91  72  53 S12       29.96F HX  98
SEDALIA        SUNNY     92  74  55 S15       29.95F HX 101
ST JOSEPH      SUNNY     93  74  53 S20G29    29.83F HX 103
ST LOUIS       CLOUDY    88  72  58 E12       29.99F HX  94
SPIRIT OF STL  CLOUDY    87  75  67 E10       29.96F HX  96
KIRKSVILLE     MOSUNNY   90  72  55 SE16      29.94F HX  97
WICHITA        SUNNY     96  71  44 S24G35    29.79F HX 103
TOPEKA         MOSUNNY   91  76  61 SE20G28   29.83F HX 103
OLATHE         MOSUNNY   89  74  60 S23G31    29.88F HX  98

......TENNESSEE......

CITY           SKY/WX    TMP DP  RH WIND       PRES   REMARKS
MEMPHIS        MOSUNNY   90  69  50 S5        30.02F HX  94
NASHVILLE      MOSUNNY   91  66  43 CALM      30.04F HX  93

......ARKANSAS.......

CITY           SKY/WX    TMP DP  RH WIND       PRES   REMARKS
FAYETTEVILLE   SUNNY     86  72  62 S15       29.98F HX  92
FT SMITH       MOSUNNY   92  72  51 S9        29.94F HX  99
LITTLE ROCK    PTSUNNY   90  74  59 S8        29.98F HX  99

......OKLAHOMA.......

CITY           SKY/WX    TMP DP  RH WIND       PRES   REMARKS
TULSA          MOSUNNY   93  72  50 S18G24    29.87F HX 101
PONCA CITY     SUNNY     94  72  48 S17G31    29.82F HX 102
MCALESTER      SUNNY     92  71  50 S14G21    29.92F HX  98
OKLAHOMA CITY  PTSUNNY   91  71  51 S18G26    29.87F HX  97

......IOWA............

CITY           SKY/WX    TMP DP  RH WIND       PRES   REMARKS
DES MOINES     MOSUNNY   88  72  58 S20       29.85F HX  94
QUAD CITIES    CLOUDY    83  66  56 E10       29.96R

......ILLINOIS........

CITY           SKY/WX    TMP DP  RH WIND       PRES   REMARKS
QUINCY         PTSUNNY   85  72  65 SE8       29.97F HX  91
CHICAGO        PTSUNNY   94  61  33 S8        29.99F HX  94




USA.gov is the U.S. government's official web portal to all federal, state and local government web resources and services.